STARLINK-38415, 100634

Orbit data source: Space-Track

STARLINK-38415, 100634 is a payload satellite owned by SpaceX/Seattle (US) in LEO that was launched on Sun, 06 Sep 2026 UTC launched from the Air Force Western Test Range (AFWTR). Payload-class satellites include a variety of spacecraft equipped with specific instruments for various scientific and technological missions. These include communications satellites like Starlink; space stations such as the ISS; scientific satellites like the Hubble; Earth observation satellites from companies like Planet Labs, Umbra, and HawkEye 360; GPS; miniature CubeSats for education and research; and military/defense satellites.

Not visible in the next 10 days
Identifier
100634, 2026-204V
Orbit
LEO
Country
Flag of USUS
Related business
Manufacturer
SpaceX/Seattle
Mission
Operational spacecraft
Bus & Motor
STARLINK V2MO, Unknown motor
Mass
575 kg wet, ~530 kg dry
Launch date (UTC)
2026-09-06 (5 days ago)
Launch vehicle
Unknown
Launch site
Air Force Western Test Range (AFWTR)
Object type
Payload
Rocket body
Debris
Shape & HBR
BOX + PAN, 17.7 m
Radar Cross Section
RCS unknown

Expand to show TLE details & history
Last TLE update: 20 hours ago

TLE from 20 hours ago
0 STARLINK-38415
1 A0634U          26253.56884420 -.00762501  19982-3 -14671-2 0  9994
2 A0634  69.9974 266.2503 0005174 273.8822  86.1797 16.00222699   647
Epoch: 2026-09-10T13:39Z
TLE epoch observation values (Epoch: 2026-09-10T13:39:08.138Z)
Latitude
-0.00009°
Longitude
71.86168°
Altitude
276.106 km
Speed
7.742 km/s
True Right ascension
17h 45m 00s
True Declination
0° 00' 00"
Sunlit
Object was in daylight at epoch
Visualization orbit readout
Latitude
Unknown
Longitude
Unknown
Altitude
Unknown
Speed
Unknown
Apparent Right ascension
Unknown
Apparent Declination
Unknown
Sunlit
N/A
Visualization observer readout
Local Sidereal Time
02:29:47
Azimuth
Unknown
Elevation
Unknown
Doppler factor
Unknown
Orbital elements
Apogee altitude
275.098 km
Perigee altitude
268.217 km
Semi-major axis
6,649.795 km
Eccentricity
0.00052
Inclination
69.9974°
RAAN
266.2503°
Arg. of periapsis
273.8822°
True anomaly
86.23886°
Mean anomaly
86.1797°
Eccentric anomaly
86.20928°
Mean motion
4.0025 °/min
Orbital period
89.94 mins
BSTAR
-0.0014671
Loading maneuver chart data...
Computing Atmospheric mass density...
Loading historical data...
Loading historical data...
Loading historical data...
Loading historical data...
Loading historical data...
Loading historical data...
Loading historical data...

Documentation

Showing up to 5 results
|